Location: Catacaguana
(10.4120°N, 66.7591°W)
Time: 17:35:54
(UTC+00:00)

Cosmos 2278 - Pass Details

Date: 10 October 2022
Orbit: 841 x 851 km, 71.1° (Epoch: 03 December)

Event Time Altitude Azimuth Distance (km) Brightness Sun altitude
Exits shadow 09:35:25 13° 267° (W) 2,232 5.2 -10.7°
Maximum altitude 09:36:14 14° 257° (WSW) 2,208 5.3 -10.5°
Drops below altitude 10° 09:38:55 10° 229° (SW) 2,456 5.7 -9.8°
Sets 09:42:42 0° 203° (SSW) 3,394 6.7 -8.9°
